Location: Krasnoyarskiy Pitomnik
(51.1333°N, 71.6167°E)
Time: 13:58:22
(UTC+00:00)

Meteor 1-16 Rocket - Pass Details

Date: 22 October 2021
Orbit: 789 x 908 km, 81.2° (Epoch: 26 November)

Event Time Altitude Azimuth Distance (km) Brightness Sun altitude
Rises 13:19:07 0° 193° (SSW) 3,515 7.6 -12.0°
Reaches altitude 10° 13:21:35 10° 194° (SSW) 2,570 6.9 -12.4°
Maximum altitude 13:27:28 83° 282° (WNW) 900 4.4 -13.4°
Drops below altitude 10° 13:33:15 10° 11° (NNE) 2,524 6.6 -14.3°
Sets 13:35:40 0° 13° (NNE) 3,448 7.2 -14.6°
